Probability
0 1 3 3 4 4 4 3 3 4 5 6 5 5 6 6 6 4 1 0 0 0 0 0 0 0 0 0 0 0 0 0 0 0 0 0 1 1 1 0 0 0 0
0 1 2 2 2 3 3 2 3 4 5 4 4 4 5 6 6 4 2 1 0 0 0 0 0 0 0 0 0 0 0 0 0 0 0 0 0 0 0 0 0 0 0
0 1 1 1 1 2 2 2 3 3 3 3 3 3 4 5 5 4 3 2 0 0 0 0 0 0 0 0 0 0 0 0 0 0 0 0 0 0 0 0 0 0 0
0 1 1 1 0 1 2 2 2 1 1 1 1 3 4 4 4 4 3 2 0 0 0 0 0 0 0 0 0 0 0 0 0 0 0 0 0 0 0 0 0 0 0
0 0 1 2 1 0 1 2 1 0 0 0 1 2 3 4 4 4 3 2 1 0 0 0 0 0 0 0 0 0 0 0 0 0 0 0 0 0 0 0 0 0 0
0 0 1 2 2 1 1 2 1 0 0 0 0 1 2 3 3 3 3 3 1 0 0 0 0 0 0 0 0 0 0 0 0 0 0 0 0 0 0 0 0 0 0
0 0 1 2 2 2 2 3 2 1 0 0 0 0 0 1 2 3 3 3 2 0 0 0 0 0 0 0 0 0 0 0 0 0 0 0 0 0 0 0 0 0 0
0 0 1 1 1 1 3 3 2 1 0 0 0 0 0 0 1 3 3 3 1 0 0 0 0 0 0 0 0 0 0 0 0 0 0 0 0 0 0 0 0 0 0
0 0 0 0 0 1 3 4 2 1 0 0 0 0 0 0 1 2 3 2 1 0 0 0 0 0 0 0 0 0 0 0 0 0 0 0 0 0 0 0 0 0 0
0 0 0 0 0 1 2 3 2 1 0 0 0 0 0 0 1 2 3 2 1 0 0 1 2 1 0 0 0 0 0 1 0 0 0 0 0 0 1 0 0 0 0
0 0 0 0 0 0 1 1 1 0 0 0 0 0 0 0 1 2 3 3 1 1 1 2 3 2 1 0 0 0 0 0 0 0 1 1 1 1 1 1 0 0 0
0 0 0 0 0 0 0 0 0 0 0 0 0 0 0 0 0 1 3 3 2 2 2 2 2 2 1 0 0 0 0 0 0 0 1 2 3 4 4 3 1 0 0
0 0 0 0 0 0 0 0 0 0 0 0 0 0 0 0 0 1 2 2 1 1 1 1 1 1 0 0 0 0 0 0 0 0 0 2 4 6 6 5 3 1 0
1 0 0 0 0 0 0 0 0 1 2 1 0 0 0 0 0 0 1 1 0 0 0 0 0 0 0 0 0 0 0 0 0 0 0 2 5 7 8 7 6 4 2
2 1 0 1 1 0 0 0 0 1 2 1 1 1 1 0 0 0 0 0 0 0 0 0 0 0 0 0 0 0 0 0 0 0 0 2 6 8 9 10 9 7 6
5 4 3 3 2 1 1 0 0 1 1 1 1 1 1 1 0 0 0 0 0 0 0 0 0 0 0 0 0 0 0 0 0 0 0 2 5 8 10 10 11 10 8
6 7 7 6 4 3 2 2 1 1 1 1 1 1 1 1 1 1 0 0 0 0 0 0 0 0 0 0 0 0 0 1 1 1 1 1 3 6 8 9 10 10 9
7 10 10 8 6 4 4 4 4 4 3 2 1 0 0 1 2 1 0 0 0 0 0 0 0 0 0 0 0 0 0 1 2 2 1 1 2 4 6 7 8 8 8
7 9 10 8 6 5 5 5 4 4 3 3 1 0 0 1 1 1 0 0 0 0 0 0 0 0 0 0 0 0 0 0 1 1 1 1 1 3 4 4 5 6 6
7 8 8 7 5 5 6 5 4 3 3 2 1 0 0 0 0 0 0 0 0 0 0 0 0 0 0 0 0 0 0 0 1 2 1 1 2 3 4 4 4 4 5
9 9 8 6 5 6 6 5 4 3 2 1 0 0 0 0 0 0 0 0 0 0 0 0 0 0 0 0 0 0 0 0 1 2 1 1 3 5 5 4 3 3 3
15 12 9 7 7 8 7 5 3 3 1 0 0 0 0 0 0 0 0 0 0 0 0 0 1 1 0 0 0 0 0 0 0 1 1 2 3 5 5 3 2 2 1
21 16 11 9 9 10 9 6 5 3 2 1 0 1 1 1 1 1 1 0 0 0 0 1 1 1 0 0 0 0 0 0 0 0 1 1 2 3 4 3 2 1 1
25 21 14 11 12 12 10 9 7 5 3 1 1 1 2 2 3 2 1 1 0 0 0 1 1 1 0 0 1 1 0 0 0 0 0 0 1 1 2 3 3 2 1
26 25 20 16 15 14 11 9 8 6 3 1 0 1 2 3 3 3 3 2 1 1 1 1 0 0 0 1 2 2 1 0 0 0 0 0 0 0 1 3 3 3 3
25 26 24 21 19 16 11 8 7 4 2 0 0 1 2 2 3 3 3 3 2 2 1 1 1 0 0 1 2 2 1 0 0 0 0 0 0 0 1 2 3 3 3
Wind_Speed
4 7 15 16 16 17 17 17 17 18 18 18 18 18 17 17 16 16 15 14 14 13 13 13 12 12 12 12 12 12 12 12 12 13 13 13 13 12 12 13 12 9 13
8 9 15 16 16 16 16 17 17 17 17 17 17 16 16 16 15 15 14 14 13 12 12 12 12 11 11 11 11 11 11 11 11 11 12 11 11 11 11 12 11 8 12
10 9 13 15 16 16 16 16 16 16 16 16 16 15 15 15 14 14 13 13 12 12 11 11 11 11 10 10 10 10 10 9 9 10 10 5 7 10 11 11 12 12 12
11 8 11 16 15 16 15 15 15 15 15 15 15 14 14 14 13 13 12 12 11 11 10 10 10 9 9 8 8 8 8 7 8 8 4 3 4 10 11 12 11 11 12
9 8 11 17 16 15 15 15 15 15 15 14 14 13 13 13 12 12 11 11 10 10 9 9 8 8 7 7 6 6 6 6 6 5 3 3 3 9 11 11 11 11 11
9 8 11 16 15 15 15 15 15 15 14 13 13 12 12 11 11 11 10 10 9 9 8 8 7 7 6 5 4 4 4 4 4 3 3 4 4 9 11 11 11 11 10
9 7 9 15 15 14 15 14 14 14 13 13 12 11 11 10 10 9 9 9 9 8 7 7 6 5 4 4 3 2 2 2 3 3 3 4 5 10 11 11 10 10 10
10 8 9 14 15 14 14 13 13 13 13 12 11 11 10 9 9 8 8 8 8 7 6 6 5 4 3 2 1 1 2 3 4 4 3 4 7 10 11 11 10 10 10
9 8 6 7 9 13 13 13 12 12 12 11 10 10 10 9 8 8 7 7 7 6 6 5 4 3 2 1 0 1 1 3 3 3 4 4 8 10 11 11 10 10 10
7 7 6 5 5 5 7 12 12 12 11 11 10 10 9 8 8 7 6 6 6 5 5 4 4 3 2 2 1 1 1 3 2 3 2 5 10 11 12 11 11 10 10
7 5 6 5 5 5 4 9 10 11 10 9 8 9 7 3 3 3 5 6 5 5 5 4 4 3 3 3 3 2 1 1 2 2 3 7 11 12 12 11 11 10 10
9 7 6 6 5 5 5 4 3 4 4 4 3 4 3 2 2 3 4 6 5 5 5 5 4 4 3 1 2 2 1 2 2 2 4 9 11 12 12 11 11 10 10
9 9 7 7 6 5 3 4 2 2 2 3 4 4 3 2 2 2 1 2 2 4 2 2 2 2 2 2 2 1 2 2 2 2 4 10 12 13 12 12 11 11 10
9 9 8 7 6 5 4 4 3 2 2 2 3 4 3 2 2 2 1 1 1 1 2 1 1 2 3 3 2 2 3 3 2 2 4 11 12 13 13 12 12 12 11
9 9 8 7 7 5 5 3 4 3 3 3 3 4 4 3 3 2 2 1 2 2 2 2 2 3 3 3 2 2 3 4 4 4 3 10 12 12 12 12 12 12 11
8 8 7 7 6 5 4 3 3 3 3 3 3 4 5 4 3 3 2 2 2 2 2 2 3 2 2 1 2 2 3 3 4 4 4 6 12 12 12 12 12 12 11
9 8 8 7 6 5 4 3 3 3 3 3 3 3 4 4 3 2 2 2 2 2 2 1 1 1 1 1 2 2 2 3 4 5 5 4 5 10 13 12 12 12 12
9 8 8 8 6 5 4 3 2 3 3 3 3 2 3 3 3 2 2 2 2 1 1 1 1 1 1 1 2 2 2 2 3 4 4 4 4 4 8 13 13 12 12
10 9 7 6 7 5 4 3 3 2 2 2 2 2 3 4 4 3 2 2 1 1 0 1 0 1 1 1 2 2 2 2 2 3 3 5 5 5 4 8 13 13 13
9 8 7 6 6 5 3 2 2 2 2 2 2 3 3 3 3 2 2 2 1 1 0 0 1 1 1 2 2 2 2 2 1 2 3 4 4 6 6 6 6 8 13
8 7 7 7 6 4 3 2 2 2 2 1 2 4 4 3 3 3 2 1 1 1 1 1 1 0 1 1 1 2 3 2 2 2 3 2 4 5 5 6 5 4 5
10 9 8 7 7 6 4 3 3 2 2 2 2 3 4 4 3 3 3 2 2 1 0 1 0 0 1 0 1 1 2 4 3 2 2 3 3 3 4 6 5 5 4
11 11 9 8 7 6 5 3 1 1 1 0 1 2 3 4 4 3 3 3 2 2 2 2 1 2 1 1 1 2 1 2 3 3 3 2 2 2 3 4 5 5 6
11 10 9 8 7 6 6 4 4 3 3 3 3 3 3 4 4 4 3 3 3 2 3 2 2 2 2 1 1 1 2 3 1 3 3 3 2 3 3 3 4 4 5
11 10 8 8 7 6 6 6 5 4 3 2 2 3 3 3 3 4 4 3 3 3 3 3 2 2 2 2 2 1 0 1 2 2 3 4 3 2 2 3 3 3 4
9 9 8 8 7 7 7 6 6 6 5 3 3 3 3 2 2 3 3 3 4 3 4 4 3 3 2 2 2 2 1 1 2 2 2 3 3 3 2 2 2 2 3
Wind_Direction
138 134 123 118 115 112 109 107 104 103 102 100 100 100 100 101 102 103 105 105 105 105 104 106 105 104 105 105 106 107 107 108 109 111 114 114 113 112 113 114 111 109 113
143 138 127 122 120 118 114 111 108 106 104 103 103 103 103 102 102 104 106 106 105 105 103 104 107 108 107 107 109 109 110 110 110 112 113 115 116 114 115 118 114 116 116
137 134 129 126 123 121 117 114 112 110 108 106 105 106 106 105 105 106 107 108 108 108 107 106 108 109 109 109 110 112 113 112 112 112 108 101 113 120 120 121 119 118 118
135 132 132 131 128 125 120 118 117 115 113 110 109 108 109 108 108 109 110 111 110 110 110 110 110 110 110 109 110 111 112 113 119 118 110 112 124 127 127 126 126 125 125
132 132 138 134 133 129 125 123 121 118 117 116 114 112 112 112 112 112 114 115 113 112 113 114 114 112 110 108 108 108 107 105 114 117 120 121 126 137 135 133 132 131 132
133 136 142 138 137 134 130 128 125 123 123 122 119 118 117 117 117 117 118 120 119 117 116 117 116 112 110 109 106 102 102 101 109 115 131 136 137 143 139 137 137 138 138
138 140 144 141 140 137 135 133 131 129 128 127 125 124 123 122 121 122 124 124 125 122 120 120 119 120 117 111 99 80 80 92 116 138 148 147 149 149 144 142 142 142 142
141 142 144 145 144 142 140 139 138 136 135 134 133 131 130 130 130 129 129 131 134 135 135 133 131 133 128 117 91 54 63 98 114 132 144 152 155 152 150 147 147 149 150
137 139 143 148 148 149 148 148 146 144 143 144 143 142 141 141 142 142 143 147 150 152 152 154 155 161 171 184 288 355 66 109 121 146 156 158 163 159 156 154 153 154 156
136 143 147 145 144 150 155 157 156 156 154 154 155 153 154 155 157 158 158 162 166 169 173 179 184 197 213 232 263 304 87 111 141 154 155 167 168 166 164 162 163 163 164
146 152 152 152 152 155 165 168 164 164 164 163 163 165 163 162 170 169 174 179 184 190 198 203 210 223 240 250 256 256 229 146 155 158 165 174 174 172 170 169 170 171 173
161 167 165 164 167 169 174 155 156 165 169 172 177 174 166 174 194 186 197 201 207 213 222 226 236 247 262 271 269 266 193 165 176 181 184 180 181 179 177 176 179 180 182
167 171 172 171 173 172 162 150 164 168 172 186 190 182 170 172 187 193 198 216 237 239 247 258 269 266 263 254 254 225 193 184 193 201 191 186 186 186 185 185 187 189 191
163 170 172 172 169 168 158 162 171 170 178 185 183 180 170 169 179 196 197 207 228 241 232 242 256 261 262 261 243 214 200 191 198 199 197 193 192 193 192 193 195 197 198
162 166 169 165 162 161 157 167 168 175 180 183 187 185 176 176 185 196 205 209 226 229 216 225 242 257 260 257 238 206 203 196 197 195 199 198 197 198 200 202 202 204 205
166 166 165 163 163 158 158 165 169 171 172 176 189 188 182 176 180 186 198 212 225 223 222 219 228 239 248 235 249 228 212 201 195 202 204 204 204 203 207 208 208 210 211
165 163 163 164 161 159 159 165 163 172 167 179 191 190 180 171 171 177 193 214 226 220 216 212 245 250 262 254 265 254 220 210 196 204 204 205 209 211 211 213 214 215 215
159 159 167 168 162 164 160 156 156 164 167 180 189 179 171 173 175 176 190 225 235 221 192 183 219 260 288 275 271 265 238 226 214 207 201 201 207 214 218 219 219 218 220
163 163 168 164 164 170 165 159 155 151 168 182 184 180 181 179 178 175 197 231 230 215 211 231 155 193 244 269 266 265 259 236 231 227 212 206 209 213 216 220 218 219 222
165 164 164 159 166 162 155 141 126 144 183 186 189 196 198 196 184 172 201 237 223 170 223 251 229 240 233 250 282 298 285 268 243 240 233 221 215 217 215 218 216 225 228
164 164 164 160 167 159 155 159 157 184 199 201 201 199 203 202 195 185 198 217 200 179 214 222 209 315 301 290 8 328 319 304 273 243 240 235 228 224 214 216 214 216 226
169 172 171 172 172 173 174 171 169 170 190 199 209 206 206 201 199 195 191 203 200 182 224 229 150 23 303 333 131 52 344 335 320 275 257 232 238 236 221 219 214 214 216
176 179 181 182 176 175 170 150 139 98 45 326 225 218 216 200 198 198 193 197 201 182 201 220 195 178 240 287 161 145 150 258 300 309 293 269 254 234 231 224 219 217 216
183 180 178 176 173 173 167 165 174 185 201 217 210 212 226 215 211 203 196 195 198 193 205 220 194 188 180 247 282 211 192 185 198 303 310 298 275 239 232 232 221 211 215
177 176 177 173 177 177 176 180 186 201 212 216 208 211 225 234 229 217 198 193 199 201 207 212 208 200 190 197 216 230 234 220 186 189 282 307 314 285 249 229 218 209 206
174 177 176 174 183 184 183 185 191 198 203 202 211 215 223 232 239 233 213 203 205 206 209 210 207 208 207 203 208 201 189 209 225 201 237 271 286 286 279 247 214 208 208